Regional Weather Roundup
Issued by NWS

Home | Current Version | Previous Version | Graphics & Text | Print | Product List | Glossary On
Versions: 1 2 3 4 5 6 7 8 9 10 11 12 13 14 15 16 17 18 19 20 21 22 23 24 25 26 27 28 29 30 31 32 33 34 35 36 37 38 39 40 41 42 43 44 45 46 47 48 49 50
000
ASUS44 KMEG 281900
RWRTN
TENNESSEE HOURLY STATE WEATHER ROUNDUP
NATIONAL WEATHER SERVICE MEMPHIS TN
200 PM CDT THU AUG 28 2014

TNZ002-004-019-021-049-052-054-088>092-282000-
WEST TENNESSEE

CITY           SKY/WX    TMP DP  RH WIND       PRES   REMARKS
MEMPHIS INTL   PTSUNNY   92  62  36 SW6       30.00F HX  92
NWS MEMPHIS      N/A     94 N/A N/A MISG        N/A
JACKSON        SUNNY     91  71  51 E7        30.00F HX  97
DYERSBURG      PTSUNNY   86  66  51 N6        30.00S
UNION CITY     MOSUNNY   90  73  58 VRB3      29.98F HX  98
PARIS          SUNNY     84  72  65 W3        30.01F
LEXINGTON      MOSUNNY   91  68  46 VRB5      30.00F HX  95
SAVANNAH       SUNNY     91  70  49 CALM      30.01F HX  97
$$

TNZ008-025-027-028-033-062-065-066-282000-
NORTH MIDDLE TENNESSEE

CITY           SKY/WX    TMP DP  RH WIND       PRES   REMARKS
NASHVILLE      MOSUNNY   92  70  48 E7        30.01F HX  97
CLARKSVILLE    MOSUNNY   90  73  57 S9        30.00F HX  98
COOKEVILLE     SUNNY     91  75  59 VRB5      30.03F HX 102
CROSSVILLE     PTSUNNY   84  68  58 NE5       30.09F
$$

TNZ061-075-076-078-094-096-097-282000-
SOUTH MIDDLE TENNESSEE

CITY           SKY/WX    TMP DP  RH WIND       PRES   REMARKS
FAYETTEVILLE   MOSUNNY   88  64  45 CALM      30.03F
TULLAHOMA      SUNNY     90  64  43 CALM      30.05F HX  91
WINCHESTER     SUNNY     90  66  45 VRB7      30.03F HX  92
SHELBYVILLE    SUNNY     91  72  52 S3        30.03F HX  98
$$

TNZ017-018-042-046-047-282000-
NORTHEAST TENNESSEE

CITY           SKY/WX    TMP DP  RH WIND       PRES   REMARKS
TRI CITIES     MOSUNNY   87  66  49 CALM      30.07F
ELIZABETHTON   PTCLDY    86  70  58 W8        30.06F HX  90
$$

TNZ012-013-036-069-073-074-282000-
CENTRAL EAST TENNESSEE

CITY           SKY/WX    TMP DP  RH WIND       PRES   REMARKS
KNOXVILLE      MOSUNNY   88  69  53 MISG      30.02F HX  92
OAK RIDGE      SUNNY     91  70  49 CALM      30.04F HX  96
GATLINBURG     CLEAR     90  64  43 NW7       30.02F HX  91
$$

TNZ083-085-099-282000-
SOUTHEAST TENNESSEE

CITY           SKY/WX    TMP DP  RH WIND       PRES   REMARKS
CHATTANOOGA    MOSUNNY   91  64  40 NW6       30.02F HX  92
$$

SKY/WX REPORTED AS FAIR MEANS FEW OR NO CLOUDS BELOW
12 THOUSAND FEET.




USA.gov is the U.S. government's official web portal to all federal, state and local government web resources and services.